カタログに戻る

OPS 3151

運用中ナビゲーションGEO
NORAD 9803·PAYLOAD·🇺🇸 United States

打ち上げ Feb 6, 1977 から Cape Canaveral Space Force Station

Loading…

TLE

最新Source: Space-Track

元期: Sep 14, 2026, 13:15 UTC

1 09803U 77007A   26257.55261080 -.00000048  00000-0  00000-0 0  9993
2 09803   4.5025 283.6645 0077486  39.9448 114.5163  0.97528480 25529

AllMySatでOPS 3151をリアルタイム追跡

Download on the App Store